GW1059 Weather Reports


Display with metric or nautical units.
time (UTC)temp
F
wind
direction
speed
MPH
gust
MPH
rain 1hr
in
rain 24hr
in
rain mn
in
humidity
%
barometer
mb
20260503211823 71 288 12.0 22.0 0.00 0.00 0.00 35 1003.8
20260503211319 71 305 11.0 18.0 0.00 0.00 0.00 36 1003.4
20260503210819 70 269 12.0 20.0 0.00 0.00 0.00 38 1003.4
20260503210317 71 277 11.0 20.0 0.00 0.00 0.00 37 1003.8
20260503205812 70 332 11.0 21.0 0.00 0.00 0.00 36 1003.8
20260503205309 70 279 13.0 22.0 0.00 0.00 0.00 36 1003.8
20260503204805 71 291 12.0 22.0 0.00 0.00 0.00 34 1003.8
20260503204303 71 319 11.0 19.0 0.00 0.00 0.00 34 1003.8
20260503203800 70 331 12.0 26.0 0.00 0.00 0.00 35 1003.8
20260503203257 70 323 13.0 26.0 0.00 0.00 0.00 35 1003.8
20260503202754 70 324 13.0 23.0 0.00 0.00 0.00 38 1004.1
20260503202252 70 290 12.0 21.0 0.00 0.00 0.00 37 1004.1
20260503201750 70 288 13.0 21.0 0.00 0.00 0.00 37 1004.1
20260503201247 70 288 12.0 21.0 0.00 0.00 0.00 36 1004.1
20260503200744 70 297 12.0 19.0 0.00 0.00 0.00 37 1004.1
20260503200240 70 284 12.0 22.0 0.00 0.00 0.00 35 1004.5
20260503195737 71 321 10.0 22.0 0.00 0.00 0.00 36 1004.1
20260503195234 70 283 11.0 19.0 0.00 0.00 0.00 37 1004.1
20260503194732 70 321 12.0 20.0 0.00 0.00 0.00 36 1004.1
20260503194227 70 334 10.0 19.0 0.00 0.00 0.00 38 1004.1
20260503193723 70 271 12.0 24.0 0.00 0.00 0.00 37 1004.1
20260503193219 70 283 11.0 24.0 0.00 0.00 0.00 37 1004.1
20260503192715 70 301 9.0 16.0 0.00 0.00 0.00 38 1004.1
20260503192210 69 281 9.0 19.0 0.00 0.00 0.00 39 1004.1
20260503191708 69 296 10.0 20.0 0.00 0.00 0.00 39 1004.5
20260503191205 69 292 10.0 20.0 0.00 0.00 0.00 40 1004.5
20260503190701 69 320 10.0 19.0 0.00 0.00 0.00 42 1004.5
20260503190158 69 355 9.0 16.0 0.00 0.00 0.00 42 1004.5
20260503185655 69 316 9.0 16.0 0.00 0.00 0.00 42 1004.5
20260503185150 69 273 9.0 16.0 0.00 0.00 0.00 42 1004.5
20260503184645 68 286 10.0 16.0 0.00 0.00 0.00 42 1004.5
20260503184142 68 277 9.0 16.0 0.00 0.00 0.00 42 1004.5
20260503183638 68 259 7.0 16.0 0.00 0.00 0.00 43 1004.5
20260503183136 68 275 7.0 17.0 0.00 0.00 0.00 43 1004.8
20260503182634 68 280 9.0 17.0 0.00 0.00 0.00 43 1004.8
20260503182132 68 276 6.0 12.0 0.00 0.00 0.00 44 1004.8
20260503181629 67 319 7.0 14.0 0.00 0.00 0.00 44 1004.8
20260503181126 67 306 7.0 14.0 0.00 0.00 0.00 44 1005.1
20260503180622 67 321 6.0 14.0 0.00 0.00 0.00 45 1005.1
20260503180120 66 301 7.0 18.0 0.00 0.00 0.00 44 1005.1
20260503175617 66 319 8.0 18.0 0.00 0.00 0.00 44 1005.1
20260503175114 66 313 7.0 13.0 0.00 0.00 0.00 45 1005.1
20260503174611 66 286 7.0 15.0 0.00 0.00 0.00 44 1005.1
20260503174108 66 318 8.0 16.0 0.00 0.00 0.00 46 1005.1
20260503173603 65 296 8.0 16.0 0.00 0.00 0.00 45 1005.1
20260503173059 65 310 8.0 14.0 0.00 0.00 0.00 46 1005.1
20260503172556 65 278 8.0 15.0 0.00 0.00 0.00 45 1005.5
20260503172054 65 248 8.0 15.0 0.00 0.00 0.00 46 1005.5
20260503171550 64 315 10.0 17.0 0.00 0.00 0.00 46 1005.5
20260503171048 65 270 11.0 17.0 0.00 0.00 0.00 45 1005.5
20260503170544 65 285 8.0 16.0 0.00 0.00 0.00 46 1005.5
20260503150937 61 238 8.0 13.0 0.00 0.00 0.00 48 1005.5
20260503150433 61 273 8.0 14.0 0.00 0.00 0.00 47 1005.5
20260503131326 58 248 2.0 9.0 0.00 0.00 0.00 56 1005.8
20260503130824 57 242 2.0 7.0 0.00 0.00 0.00 57 1005.8
20260503130321 57 191 2.0 7.0 0.00 0.00 0.00 57 1005.8
20260503110714 50 155 3.0 6.0 0.00 0.00 0.00 70 1006.2
20260503110212 50 148 3.0 5.0 0.00 0.00 0.00 72 1006.2
20260503100138 51 153 2.0 6.0 0.00 0.00 0.00 67 1006.2
20260503081533 54 201 3.0 7.0 0.00 0.00 0.00 55 1007.3
20260503081030 55 190 3.0 7.0 0.00 0.00 0.00 54 1007.3
20260503080526 55 179 3.0 6.0 0.00 0.00 0.00 54 1007.6
20260503072500 55 192 3.0 8.0 0.00 0.00 0.00 55 1007.9
20260503071957 55 190 3.0 8.0 0.00 0.00 0.00 56 1007.9
20260503071454 55 198 3.0 7.0 0.00 0.00 0.00 57 1007.9
20260503070950 55 194 2.0 6.0 0.00 0.00 0.00 58 1007.9
20260503070447 55 190 2.0 4.0 0.00 0.00 0.00 59 1007.9
20260503054906 58 282 3.0 10.0 0.00 0.00 0.00 55 1009.6
20260503054402 57 132 2.0 5.0 0.00 0.00 0.00 56 1009.6
20260503053900 58 242 2.0 3.0 0.00 0.00 0.00 53 1009.6
20260503053358 58 241 2.0 4.0 0.00 0.00 0.00 52 1009.6
20260503052854 58 241 2.0 4.0 0.00 0.00 0.00 52 1009.6
20260503052351 58 240 2.0 4.0 0.00 0.00 0.00 51 1009.6
20260503051847 58 240 2.0 4.0 0.00 0.00 0.00 51 1009.6
20260503051344 58 242 2.0 7.0 0.00 0.00 0.00 51 1009.6
20260503050841 58 238 3.0 8.0 0.00 0.00 0.00 51 1009.6
20260503050337 58 246 3.0 8.0 0.00 0.00 0.00 51 1009.6
20260503045834 58 259 3.0 9.0 0.00 0.00 0.00 50 1009.6
20260503045332 58 242 3.0 9.0 0.00 0.00 0.00 50 1009.6
20260503044828 58 237 4.0 8.0 0.00 0.00 0.00 50 1009.6
20260503044325 59 252 4.0 9.0 0.00 0.00 0.00 50 1009.6
20260503043822 59 235 3.0 11.0 0.00 0.00 0.00 49 1010.1
20260503043319 58 235 4.0 11.0 0.00 0.00 0.00 49 1010.1
20260503042815 58 254 3.0 7.0 0.00 0.00 0.00 49 1010.1
20260503042312 58 212 2.0 5.0 0.00 0.00 0.00 49 1010.1
20260503041808 58 226 1.0 3.0 0.00 0.00 0.00 49 1010.1
20260503041306 58 225 1.0 5.0 0.00 0.00 0.00 49 1010.1
20260503040804 58 215 1.0 5.0 0.00 0.00 0.00 49 1010.1
20260503040301 58 200 2.0 5.0 0.00 0.00 0.00 48 1010.1
20260503035757 58 182 2.0 5.0 0.00 0.00 0.00 48 1010.4
20260503035255 58 239 2.0 5.0 0.00 0.00 0.00 48 1010.4
20260503034752 58 252 2.0 6.0 0.00 0.00 0.00 48 1010.4
20260503034249 57 244 2.0 6.0 0.00 0.00 0.00 49 1010.7
20260503033746 57 218 2.0 5.0 0.00 0.00 0.00 50 1010.7
20260503033244 57 232 1.0 3.0 0.00 0.00 0.00 51 1010.7
20260503032742 57 234 1.0 3.0 0.00 0.00 0.00 51 1010.7
20260503032240 57 234 1.0 4.0 0.00 0.00 0.00 50 1010.7
20260503031737 57 234 2.0 4.0 0.00 0.00 0.00 50 1010.7
20260503031235 57 232 1.0 4.0 0.00 0.00 0.00 50 1011.1
20260503030731 57 233 1.0 4.0 0.00 0.00 0.00 49 1011.1
20260503030228 57 233 1.0 4.0 0.00 0.00 0.00 49 1011.1
20260503025725 57 229 1.0 4.0 0.00 0.00 0.00 48 1011.1
20260503025222 57 234 1.0 4.0 0.00 0.00 0.00 48 1011.1
20260503024719 57 236 1.0 4.0 0.00 0.00 0.00 47 1011.1
20260503024216 57 217 0.0 3.0 0.00 0.00 0.00 47 1011.1
20260503023713 58 203 1.0 5.0 0.00 0.00 0.00 47 1011.1
20260503023209 58 202 1.0 5.0 0.00 0.00 0.00 47 1011.1
20260503022706 57 200 1.0 3.0 0.00 0.00 0.00 47 1011.1
20260503022205 57 210 0.0 3.0 0.00 0.00 0.00 47 1011.1
20260503021703 57 210 1.0 3.0 0.00 0.00 0.00 47 1011.1
20260503021159 57 209 0.0 3.0 0.00 0.00 0.00 46 1011.1
20260503020656 57 196 0.0 3.0 0.00 0.00 0.00 47 1011.1
20260503020154 58 196 1.0 3.0 0.00 0.00 0.00 46 1011.1
20260503015650 58 198 1.0 3.0 0.00 0.00 0.00 46 1011.1
20260503015147 58 198 2.0 5.0 0.00 0.00 0.00 46 1011.1
20260503014643 58 198 2.0 5.0 0.00 0.00 0.00 46 1011.1
20260503014141 58 196 2.0 4.0 0.00 0.00 0.00 45 1011.1
20260503013638 58 196 2.0 6.0 0.00 0.00 0.00 45 1011.1
20260503013136 58 177 1.0 6.0 0.00 0.00 0.00 45 1011.1
20260503012633 59 184 1.0 4.0 0.00 0.00 0.00 45 1011.1
20260503012130 59 185 1.0 4.0 0.00 0.00 0.00 45 1011.4
20260503011626 59 194 2.0 5.0 0.00 0.00 0.00 44 1011.4
20260503011124 59 192 2.0 6.0 0.00 0.00 0.00 44 1011.4
20260503010620 59 195 2.0 6.0 0.00 0.00 0.00 44 1011.4
20260503010117 59 198 2.0 5.0 0.00 0.00 0.00 43 1011.4
20260503005614 60 199 2.0 5.0 0.00 0.00 0.00 43 1011.4
20260503005111 60 202 2.0 6.0 0.00 0.00 0.00 42 1011.4
20260503004607 60 190 2.0 6.0 0.00 0.00 0.00 42 1011.4
20260503004106 60 197 2.0 5.0 0.00 0.00 0.00 41 1011.4
20260503003602 60 193 1.0 5.0 0.00 0.00 0.00 41 1011.4
20260503003059 61 193 2.0 5.0 0.00 0.00 0.00 41 1011.8
20260503002556 61 242 2.0 7.0 0.00 0.00 0.00 41 1011.8
20260503002053 61 246 3.0 7.0 0.00 0.00 0.00 41 1011.8
20260503001549 61 244 3.0 8.0 0.00 0.00 0.00 39 1011.8
20260503001047 61 236 3.0 11.0 0.00 0.00 0.00 39 1011.8
20260503000544 61 239 4.0 11.0 0.00 0.00 0.00 40 1011.8
20260503000041 61 236 5.0 11.0 0.00 0.00 0.00 39 1011.8
20260502235537 61 227 5.0 11.0 0.00 0.00 0.00 39 1011.8
20260502235036 61 234 5.0 11.0 0.00 0.00 0.00 39 1011.8
20260502234531 61 252 5.0 10.0 0.00 0.00 0.00 39 1011.8
20260502234029 61 244 5.0 10.0 0.00 0.00 0.00 39 1012.1
20260502233524 61 269 7.0 11.0 0.00 0.00 0.00 39 1012.1
20260502233021 61 248 5.0 11.0 0.00 0.00 0.00 39 1012.1
20260502232517 61 284 5.0 11.0 0.00 0.00 0.00 39 1012.1
20260502232015 61 234 7.0 13.0 0.00 0.00 0.00 39 1012.4
20260502231511 61 261 9.0 16.0 0.00 0.00 0.00 39 1012.4
20260502231009 61 251 7.0 16.0 0.00 0.00 0.00 39 1012.1
20260502230508 61 288 7.0 13.0 0.00 0.00 0.00 39 1012.4
20260502230006 61 259 8.0 13.0 0.00 0.00 0.00 38 1012.4
20260502225500 61 261 9.0 16.0 0.00 0.00 0.00 38 1012.4
20260502224958 61 261 10.0 17.0 0.00 0.00 0.00 38 1012.4
20260502224454 62 280 10.0 17.0 0.00 0.00 0.00 38 1012.4
20260502223951 61 283 11.0 17.0 0.00 0.00 0.00 38 1012.4
20260502223449 62 288 11.0 20.0 0.00 0.00 0.00 38 1012.4
20260502222947 62 258 11.0 20.0 0.00 0.00 0.00 38 1012.4
20260502222444 62 292 9.0 18.0 0.00 0.00 0.00 38 1012.4
20260502221939 61 267 9.0 18.0 0.00 0.00 0.00 38 1012.8
20260502221436 62 264 9.0 17.0 0.00 0.00 0.00 38 1012.8
20260502220933 61 277 9.0 17.0 0.00 0.00 0.00 38 1012.8
20260502220429 61 262 10.0 17.0 0.00 0.00 0.00 38 1012.8
20260502215926 61 271 10.0 17.0 0.00 0.00 0.00 38 1012.8
20260502215423 61 281 10.0 17.0 0.00 0.00 0.00 37 1012.8
20260502214920 61 285 9.0 15.0 0.00 0.00 0.00 37 1012.8
20260502214416 62 292 7.0 15.0 0.00 0.00 0.00 38 1013.1
20260502213914 61 273 8.0 17.0 0.00 0.00 0.00 37 1013.1
20260502213410 61 240 9.0 17.0 0.00 0.00 0.00 37 1013.1
20260502212909 61 265 7.0 16.0 0.00 0.00 0.00 38 1013.5
20260502212408 61 254 7.0 12.0 0.00 0.00 0.00 37 1013.5